This is the latest recevied weather packets stored in our database for station/object K3HW. If no packets are shown the sender has not sent any weather packets the latest 10 day(s).
| Time | Temp. | Humidity | Pressure | Rain* | Wind** | Luminosity | Snow |
|---|---|---|---|---|---|---|---|
| 1778100734 | 18.89° C | 79% | 1010.6 hPa | 0 mm | - | 25 W/m² | - |
| 1778100431 | 18.89° C | 79% | 1010.6 hPa | 0 mm | - | 17 W/m² | - |
| 1778100129 | 18.89° C | 79% | 1010.4 hPa | 0 mm | - | 19 W/m² | - |
| 1778099827 | 18.89° C | 79% | 1010.4 hPa | 0 mm | - | 28 W/m² | - |
| 1778099524 | 18.89° C | 79% | 1010.4 hPa | 0 mm | - | 47 W/m² | - |
| 1778099221 | 18.89° C | 79% | 1010.5 hPa | 0 mm | - | 53 W/m² | - |
| 1778098917 | 18.89° C | 79% | 1010.4 hPa | 0 mm | - | 58 W/m² | - |
| 1778098614 | 18.33° C | 79% | 1010.2 hPa | 0 mm | - | 91 W/m² | - |
| 1778098310 | 18.33° C | 79% | 1010.4 hPa | 0 mm | - | 101 W/m² | - |
| 1778098008 | 18.33° C | 80% | 1010.6 hPa | 0 mm | - | 83 W/m² | - |
| 1778097704 | 17.78° C | 80% | 1010.3 hPa | 0 mm | - | 69 W/m² | - |
| 1778097401 | 17.78° C | 80% | 1010.9 hPa | 0 mm | - | 47 W/m² | - |
| 1778097097 | 17.78° C | 81% | 1010.8 hPa | 0 mm | - | 43 W/m² | - |
| 1778096795 | 18.33° C | 81% | 1010.7 hPa | 0 mm | - | 46 W/m² | - |
| 1778096491 | 17.78° C | 81% | 1010.9 hPa | 0 mm | - | 70 W/m² | - |
| 1778096189 | 17.78° C | 82% | 1011 hPa | 0 mm | - | 80 W/m² | - |
| 1778095886 | 17.78° C | 82% | 1011 hPa | 0 mm | - | 94 W/m² | - |
| 1778095582 | 17.78° C | 82% | 1010.9 hPa | 0 mm | - | 61 W/m² | - |
| 1778095278 | 17.78° C | 82% | 1011.1 hPa | 0 mm | - | 54 W/m² | - |
| 1778094975 | 17.22° C | 82% | 1011 hPa | 0 mm | - | 111 W/m² | - |
| 1778094671 | 17.22° C | 83% | 1011 hPa | 0 mm | - | 76 W/m² | - |
| 1778094369 | 17.22° C | 84% | 1010.9 hPa | 0 mm | - | 51 W/m² | - |
| 1778094065 | 17.22° C | 84% | 1011.1 hPa | 0 mm | - | 56 W/m² | - |
| 1778093763 | 17.22° C | 84% | 1011.1 hPa | 0 mm | - | 53 W/m² | - |
| 1778093459 | 16.67° C | 85% | 1011 hPa | 0 mm | - | 85 W/m² | - |
* Rain latest hour (hover to see other rain measurements)
** Current wind speed in m/s (hover to see current wind gust speed)